Temp
25 25 27 30 34 37 36 35 37 35 34 33 34 33 31 30 30 29 27 26 27 27 24 23 23 24 25 24 24 24 24 24 25 25 25 25 25 25 25 24 24 24 24 23 23 23 23 23 23
26 27 29 35 36 37 36 36 36 36 34 34 33 33 32 28 29 28 29 26 26 26 25 24 23 24 24 24 24 24 24 24 24 24 24 24 25 25 24 24 24 24 23 23 23 23 23 23 23
26 28 35 37 38 37 35 36 36 34 34 34 32 32 31 28 28 28 26 26 26 26 25 22 23 23 24 24 24 24 24 24 24 24 24 24 24 24 24 24 23 23 23 23 23 23 23 23 23
29 33 35 36 37 35 36 36 35 34 34 34 33 30 28 26 27 26 26 26 27 27 25 23 24 23 23 24 24 24 24 24 24 23 23 23 23 23 23 23 23 23 23 23 23 23 22 22 22
31 35 36 36 36 35 35 36 36 35 35 34 34 31 28 26 24 26 26 26 27 27 26 23 23 23 23 23 23 24 24 24 24 24 23 23 23 23 23 23 23 22 22 22 22 22 22 22 22
35 36 36 36 35 35 35 35 36 35 35 34 33 31 28 26 25 25 26 27 27 26 25 24 23 23 23 23 23 23 23 23 23 23 23 23 23 23 22 22 22 22 22 21 22 22 22 22 22
35 36 37 36 35 34 34 35 35 35 34 33 34 31 28 27 25 25 25 25 26 26 25 24 24 22 23 22 22 22 22 22 22 22 21 21 22 22 22 22 22 22 22 21 21 21 22 21 22
35 36 34 36 35 35 33 33 34 35 32 31 32 32 29 27 26 26 26 26 26 26 26 25 24 25 25 23 23 23 23 23 23 23 22 22 23 23 22 22 22 21 21 22 22 22 22 22 22
33 36 35 35 36 34 34 33 32 32 32 31 31 31 29 26 27 28 28 28 27 26 26 26 26 25 25 24 22 23 22 23 22 22 22 23 24 24 23 23 22 22 22 22 22 22 21 22 22
35 36 36 36 37 35 34 35 33 33 32 31 30 28 27 27 28 29 30 30 29 28 27 26 26 25 25 25 23 23 23 22 21 21 21 22 22 22 21 22 22 22 22 22 22 22 22 22 23
35 35 34 34 35 36 35 34 34 34 33 32 31 29 28 28 29 31 31 30 29 28 27 26 24 24 26 25 25 24 23 23 22 21 20 21 22 22 23 23 24 23 23 23 24 24 24 25 26
33 34 35 34 34 35 34 34 33 34 34 34 32 30 29 30 31 31 30 29 29 28 26 26 24 24 24 25 25 25 24 23 23 21 21 21 23 22 22 22 22 23 23 22 23 23 24 23 23
34 33 34 34 34 35 34 34 34 33 32 33 31 30 30 31 31 30 29 29 28 28 26 26 25 23 23 24 24 24 24 23 22 22 21 21 21 21 21 21 22 22 22 22 22 22 22 22 23
33 34 33 34 34 33 33 33 33 32 31 31 30 30 31 30 30 29 28 28 28 27 26 25 25 23 23 23 22 23 23 23 23 23 21 21 21 20 21 21 21 21 21 21 21 21 21 21 22
33 32 33 33 33 33 34 31 32 32 31 30 30 30 30 30 29 29 28 27 27 26 25 24 24 23 23 22 22 22 23 23 23 22 21 20 20 20 19 21 21 21 20 20 21 21 21 21 22
33 34 32 33 33 33 32 32 33 32 31 31 30 30 30 30 29 28 27 27 26 26 25 24 25 25 23 22 22 22 22 22 22 22 21 21 20 20 19 20 20 20 19 20 20 20 21 21 21
32 33 33 32 33 32 32 33 33 32 32 31 31 30 30 30 29 27 27 26 26 25 24 24 23 24 23 22 21 21 21 21 22 21 21 21 20 20 19 19 20 19 19 19 19 20 20 20 20
32 32 33 32 32 32 32 32 33 32 32 31 31 31 30 30 29 27 26 26 25 24 24 23 23 22 21 21 21 22 22 22 22 21 21 20 19 19 19 19 18 18 18 19 19 18 18 18 18
33 32 32 33 32 32 32 32 32 32 32 32 31 31 30 30 29 28 27 26 25 24 24 23 23 22 21 22 23 23 23 23 22 22 21 20 19 18 17 17 18 17 17 17 16 16 17 17 18
32 32 32 31 31 31 32 32 33 32 31 32 32 32 31 30 29 28 27 26 25 25 24 24 23 22 20 21 21 20 20 21 21 20 20 19 18 18 17 16 16 16 16 16 15 15 16 17 18
31 31 32 32 31 31 32 31 32 32 32 32 32 32 31 30 29 29 28 26 26 25 24 23 21 20 19 18 20 20 20 20 21 21 20 19 17 16 15 14 14 14 13 14 15 15 15 16 17
30 31 31 30 30 31 31 31 32 32 30 31 31 31 31 30 29 30 28 27 26 25 22 20 19 18 17 16 18 16 17 18 19 17 18 16 15 14 13 13 13 12 12 12 12 12 11 12 13
31 31 30 30 30 30 30 30 32 32 30 31 31 31 31 31 30 29 29 28 25 22 20 18 17 16 15 15 15 15 16 16 16 15 14 14 13 13 12 12 11 11 10 10 9 9 9 9 9
29 29 29 29 30 28 30 30 32 32 31 32 31 30 30 30 30 29 28 25 23 22 20 18 17 16 15 15 14 13 13 12 12 12 11 13 12 11 11 10 9 8 8 8 9 9 9 8 8
30 29 28 28 29 29 29 28 31 30 30 29 30 29 29 29 30 29 27 26 23 21 20 19 17 17 15 14 13 12 11 10 11 10 11 9 8 8 8 7 7 7 7 7 7 7 8 8 8
30 30 27 24 28 30 28 28 30 29 29 29 30 30 29 29 30 28 26 24 22 20 18 18 17 16 14 13 12 11 10 10 9 9 7 6 7 7 7 6 6 5 5 6 6 6 6 7 7
29 28 30 28 27 27 30 29 30 29 29 29 29 29 29 29 27 25 23 22 20 19 17 16 15 14 13 12 11 10 9 8 7 7 6 7 6 6 6 5 5 5 5 5 5 5 6 6 7
29 30 27 28 24 26 29 28 29 29 29 29 29 29 29 27 25 23 22 20 19 18 16 15 13 13 12 11 10 9 8 8 7 6 6 6 5 5 4 5 5 5 5 5 5 5 6 6 6
28 28 29 28 28 25 25 29 30 29 30 29 30 30 29 26 25 23 21 19 18 17 16 14 13 11 11 10 8 8 7 7 6 6 6 5 5 4 4 4 5 4 4 5 5 5 6 6 6
31 30 29 28 26 26 26 27 30 29 29 29 29 29 28 26 23 22 21 19 17 15 14 13 11 10 9 8 8 7 6 6 6 6 5 5 4 4 4 4 4 4 4 4 5 5 5 6 6
Height
789 789 790 786 786 762 781 781 762 774 775 769 767 773 788 790 796 814 809 809 809 811 814 815 814 814 814 815 815 815 816 816 816 817 818 818 819 819 820 821 822 823 823 824 825 825 825 825 825
789 789 787 770 774 779 785 771 772 768 768 769 774 779 787 805 798 803 805 811 812 814 815 817 815 815 816 816 817 817 817 818 819 820 820 821 821 821 822 823 823 823 824 824 824 825 825 825 825
788 788 775 765 762 774 785 766 770 772 772 773 781 780 789 806 804 804 810 811 813 814 816 816 816 816 816 817 819 819 819 819 820 821 822 822 822 822 822 822 823 823 824 824 824 824 824 824 824
786 780 770 774 774 777 768 767 769 775 773 773 776 796 800 808 808 811 812 812 812 813 816 816 817 818 818 818 819 820 820 820 819 821 821 822 822 822 822 822 822 823 823 823 822 823 823 822 822
783 769 774 775 776 777 771 763 766 772 775 778 776 796 803 810 813 812 812 812 813 814 817 817 817 818 818 818 819 819 819 819 820 819 820 821 821 822 822 822 822 822 822 822 821 821 821 821 820
774 766 777 784 778 777 772 766 767 771 775 780 784 796 808 812 812 813 813 814 814 816 818 819 818 817 818 818 819 818 819 818 819 819 819 820 821 821 821 821 820 820 820 821 820 819 819 818 818
772 768 767 768 780 781 779 769 773 774 779 788 782 798 808 811 814 814 815 816 816 817 819 819 820 819 819 818 818 818 818 817 818 818 819 819 819 819 819 820 819 819 818 818 818 817 816 815 815
769 764 781 770 781 782 778 779 777 774 793 791 789 797 808 812 814 815 815 816 817 819 819 820 821 821 822 821 819 819 818 818 818 818 818 819 819 818 818 817 817 815 815 814 814 813 812 812 810
771 772 779 780 774 779 776 782 783 786 789 794 795 794 803 811 812 812 813 815 817 819 820 820 821 822 821 822 820 820 819 819 819 819 818 818 818 818 817 815 814 812 811 810 809 808 807 806 805
770 770 771 762 758 772 775 773 784 788 793 797 801 805 809 811 811 810 810 813 815 818 820 821 822 822 822 822 822 822 821 821 820 819 818 818 818 816 815 812 810 808 808 806 805 804 803 801 801
768 772 773 775 766 764 776 780 780 781 792 791 798 804 808 811 810 808 809 812 816 819 820 822 822 822 822 822 822 822 822 821 821 820 819 818 817 815 814 812 809 808 807 804 802 801 799 796 794
782 775 770 772 774 771 780 779 785 782 785 786 794 802 807 808 807 808 812 815 816 819 822 822 823 823 823 823 823 823 823 822 822 821 820 818 817 816 813 811 809 807 805 803 801 798 796 794 793
775 778 773 774 776 775 777 784 786 789 790 792 799 804 806 806 809 812 814 815 817 819 822 823 823 823 823 823 824 823 823 823 822 821 820 819 818 817 814 812 810 808 804 802 799 796 794 791 788
777 777 780 778 779 782 786 789 789 793 794 798 803 805 806 808 811 814 815 817 818 819 821 822 823 822 823 823 823 823 823 822 821 820 819 819 818 816 814 811 808 806 803 801 798 794 791 787 784
778 788 785 784 783 788 782 800 798 789 795 800 803 805 807 809 811 813 816 819 820 822 823 823 823 823 823 824 824 824 823 822 821 820 818 817 815 814 812 810 807 804 802 799 794 791 787 783 779
782 780 797 786 785 785 791 800 787 789 795 799 801 804 807 808 811 813 817 819 821 821 823 823 822 822 823 823 823 822 821 821 819 818 816 815 813 812 810 807 805 803 800 796 792 787 782 779 775
785 792 789 795 783 789 793 788 782 787 792 796 799 801 804 806 810 813 816 819 820 821 822 822 822 822 822 822 822 821 820 819 817 815 814 812 811 809 807 805 801 799 796 792 788 784 780 775 770
790 791 786 788 786 786 794 789 778 786 790 792 794 796 799 802 805 811 815 817 819 820 820 821 821 821 821 820 820 819 818 816 814 813 811 809 808 806 803 800 797 794 790 786 783 780 777 772 766
773 781 786 780 780 788 787 786 783 783 787 789 790 792 795 797 802 806 811 814 816 817 818 819 820 820 820 819 818 816 813 811 811 809 807 806 803 801 798 794 791 788 784 779 778 774 770 764 760
780 785 786 785 783 788 781 783 774 780 783 781 783 785 789 794 799 801 807 811 813 815 816 817 818 819 818 817 816 815 813 810 808 806 804 802 799 796 793 789 785 781 776 773 770 768 762 757 754
781 784 781 787 786 783 783 787 781 778 778 778 778 779 783 788 793 797 803 807 810 812 814 815 816 816 816 815 814 813 811 807 804 801 799 797 794 791 787 783 779 775 772 766 763 760 756 750 747
789 777 782 788 792 797 782 797 775 775 782 779 778 780 781 784 790 792 798 803 807 810 814 815 815 815 815 814 814 813 811 807 804 801 796 792 789 784 781 776 772 768 765 761 758 756 753 750 744
782 779 785 788 791 791 788 800 773 770 782 776 775 775 774 778 785 790 794 798 805 812 813 814 814 815 815 815 814 813 810 807 802 797 792 788 783 778 775 771 766 762 759 755 753 751 749 746 743
782 789 790 790 788 810 786 789 773 766 773 767 769 774 775 776 780 787 793 803 809 811 812 814 815 816 816 815 813 811 809 804 799 794 789 782 777 774 770 766 762 758 754 750 746 744 742 739 736
782 793 806 808 804 803 790 798 772 771 772 774 774 775 775 777 779 785 798 801 807 810 813 814 816 816 815 813 811 808 804 800 795 790 783 780 775 770 765 762 757 752 748 744 740 736 734 732 729
782 783 808 834 806 787 793 799 776 772 772 771 769 771 774 777 778 787 796 802 807 812 815 815 815 814 813 811 808 806 802 797 792 787 783 778 772 767 762 756 751 746 741 737 733 729 725 723 721
781 795 777 797 799 806 775 777 770 769 772 771 771 772 775 779 786 796 803 807 811 814 816 816 815 814 812 809 806 802 798 794 789 785 780 774 769 763 756 750 743 738 733 728 724 720 717 715 712
774 767 798 795 827 815 780 790 784 777 773 771 772 774 775 782 792 800 805 810 813 816 816 816 815 813 810 807 804 799 795 791 787 782 776 770 764 757 750 744 738 731 726 721 716 711 708 706 704
781 781 779 779 788 814 813 785 764 768 767 768 767 766 772 786 794 801 806 812 814 816 816 816 814 812 809 806 802 798 793 789 784 778 771 765 758 752 745 738 731 725 718 713 708 704 701 698 696
755 763 768 787 797 797 797 796 759 763 764 766 765 767 774 785 797 803 807 812 814 816 816 815 814 812 809 806 801 796 792 786 780 774 768 761 754 747 740 733 725 718 712 705 701 696 693 690 688
Wind_Speed
4 4 5 7 6 7 9 7 6 10 7 3 9 7 15 13 8 7 6 8 9 10 8 7 7 9 10 9 9 10 10 10 12 11 11 10 12 13 13 11 10 9 8 7 6 6 5 5 5
4 4 7 5 7 9 7 8 11 7 8 9 8 8 7 10 11 8 9 7 9 9 8 7 7 8 9 10 9 9 10 9 8 8 8 8 10 11 10 8 8 7 6 7 7 7 7 7 7
5 7 6 5 5 7 10 8 9 10 10 5 5 12 6 5 8 4 7 7 9 9 10 9 8 7 8 9 9 9 9 9 8 7 7 7 8 8 8 8 7 7 7 8 8 8 9 9 9
6 6 5 7 9 6 10 11 13 13 8 2 10 11 9 8 3 3 6 8 9 10 10 10 8 7 8 8 7 7 7 7 7 6 6 5 6 7 7 8 9 9 10 10 11 12 12 12 12
8 4 6 8 8 8 3 13 13 11 9 10 9 10 7 10 6 9 9 9 9 9 9 9 9 7 7 6 6 6 5 5 3 3 3 4 6 7 8 10 11 11 12 13 13 13 14 15 15
7 5 9 12 11 9 10 10 9 9 10 10 13 11 8 6 9 9 8 9 10 10 9 8 9 9 8 7 6 5 4 3 2 2 3 5 7 8 10 11 12 13 14 16 16 17 17 17 17
13 9 6 10 14 13 15 9 7 9 13 8 6 7 7 10 10 10 11 12 12 11 10 8 7 8 8 8 7 5 4 3 1 1 3 5 7 9 11 13 14 15 17 18 20 20 20 20 21
5 5 9 9 16 18 12 8 4 9 9 8 2 5 10 13 12 14 14 14 13 12 11 11 10 7 6 7 6 6 6 6 5 6 7 8 10 10 11 14 13 14 17 19 20 21 22 23 24
3 7 11 9 15 14 13 11 3 2 9 6 4 8 16 16 14 13 13 13 13 11 11 11 10 9 9 8 8 9 8 8 7 9 9 8 8 9 11 12 17 17 18 20 21 22 23 24 25
7 8 9 7 7 17 15 9 11 10 11 10 13 16 17 15 11 10 10 11 12 12 12 12 11 10 9 9 9 8 8 7 8 8 8 7 8 9 12 11 15 15 16 18 19 19 20 21 21
4 4 6 8 7 15 13 7 5 10 10 11 15 16 15 13 11 10 10 10 11 12 12 13 12 12 12 12 10 9 9 8 8 9 9 8 9 9 11 12 13 14 14 16 14 17 18 20 21
7 6 5 9 10 12 14 9 8 6 9 10 15 15 14 13 12 11 11 11 12 12 12 12 12 11 11 11 11 10 10 9 10 10 12 11 11 11 12 12 14 14 14 15 16 17 18 19 22
9 7 6 10 13 13 9 10 8 7 8 13 16 13 14 11 11 11 12 13 13 13 12 11 10 9 7 8 9 8 8 8 7 8 9 10 10 11 11 12 13 14 15 16 18 18 19 20 22
5 9 9 11 12 9 11 9 10 9 13 14 14 14 12 12 13 12 11 11 10 12 11 9 8 6 5 5 4 4 3 4 4 5 6 8 9 9 12 13 14 15 15 16 18 20 21 23 23
9 11 11 12 13 9 8 11 10 16 15 15 14 14 12 12 13 11 10 9 9 8 8 7 6 5 3 2 0 1 3 4 5 6 5 6 8 10 12 16 17 17 17 19 20 20 21 23 24
12 12 13 13 13 8 14 15 13 17 17 17 16 14 13 13 14 12 10 9 8 7 8 7 5 4 4 4 4 6 7 8 9 10 10 9 10 12 15 18 20 21 22 23 23 23 23 24 24
9 12 16 13 16 10 17 11 16 17 18 16 16 16 15 15 16 15 13 12 11 11 10 9 8 7 7 7 8 9 11 12 13 13 14 14 15 16 17 21 23 23 25 26 26 26 25 26 26
13 12 13 11 16 13 18 16 16 18 19 19 18 17 16 16 17 18 16 14 13 13 12 11 9 8 8 9 11 13 15 15 16 16 17 17 19 20 21 24 26 26 29 30 30 28 30 30 29
6 10 12 8 5 15 18 18 12 17 19 18 18 18 18 19 18 18 17 15 15 14 14 13 11 10 10 11 15 18 19 19 19 19 20 21 21 23 23 26 29 30 32 32 32 32 31 30 28
11 12 11 6 6 11 14 17 14 16 21 21 20 19 19 17 17 20 17 16 17 14 13 12 12 11 11 13 15 16 17 20 21 22 23 22 23 25 28 31 32 32 32 32 32 31 31 30 27
11 11 9 10 7 10 7 14 15 15 17 18 18 17 17 17 18 17 18 17 15 14 12 11 9 8 7 8 10 12 15 18 21 24 26 29 28 30 32 32 32 30 29 31 29 28 28 28 28
11 6 5 7 10 12 9 13 19 16 17 18 18 17 17 17 18 16 17 16 12 8 3 1 2 4 6 9 7 10 14 19 22 27 30 31 32 31 32 30 29 29 28 28 27 24 22 21 22
2 5 5 5 9 7 10 8 11 13 15 17 17 17 18 19 18 17 13 15 3 2 4 7 8 8 7 8 10 14 17 22 26 28 31 31 31 28 28 29 28 27 26 25 24 25 24 23 25
10 7 6 6 8 10 13 10 9 10 9 6 5 10 11 12 14 13 5 4 5 6 7 7 7 7 9 12 14 16 20 24 27 29 30 29 28 29 28 26 25 26 26 26 25 23 22 24 23
11 8 6 7 7 5 4 6 12 2 1 2 5 7 8 9 11 10 9 8 5 6 5 5 8 9 13 16 18 20 22 24 26 27 27 29 27 26 27 26 27 27 28 29 28 27 26 25 24
15 8 2 4 3 3 6 6 4 2 2 4 5 7 8 8 8 5 4 6 7 6 6 7 10 13 16 19 21 21 22 23 24 23 25 26 26 26 28 29 30 31 31 30 30 28 27 25 26
8 10 4 6 5 8 5 4 9 7 6 7 10 10 10 8 6 7 9 8 6 5 7 10 13 15 18 20 22 22 22 22 22 24 24 25 26 28 30 31 33 33 32 31 30 29 28 25 25
11 10 6 7 4 8 4 4 7 7 7 9 11 11 11 9 9 9 9 8 5 5 7 11 14 17 20 21 21 22 22 21 22 23 25 26 28 29 31 31 30 31 30 30 29 29 27 26 26
7 11 7 4 3 4 5 4 4 6 3 6 10 11 12 10 10 9 9 7 6 7 10 13 16 19 20 21 21 21 21 23 23 23 25 27 28 29 30 30 29 30 31 29 28 28 28 28 27
11 12 14 8 8 6 7 8 3 5 5 5 6 2 7 9 10 9 8 6 7 10 12 15 17 18 19 20 21 21 21 22 23 25 26 26 30 29 29 30 30 30 29 29 27 26 25 25 24
Wind_Direction
292 247 207 231 232 234 126 117 112 120 138 49 76 26 76 39 6 71 89 88 122 112 116 113 122 124 135 140 141 140 154 164 163 165 168 173 179 179 178 180 183 192 205 219 232 237 241 244 241
238 200 225 270 238 162 117 135 133 105 78 115 100 126 90 78 50 90 113 98 115 114 115 121 128 122 124 135 141 141 145 150 160 168 178 181 182 184 189 194 199 213 232 241 245 253 256 259 259
219 227 259 251 238 131 136 147 122 110 132 135 104 63 56 66 64 67 72 118 133 122 117 117 117 121 123 127 141 146 143 140 151 162 176 181 188 196 201 211 228 236 244 254 259 260 264 265 265
213 206 224 234 176 77 128 140 128 134 140 94 107 89 99 49 62 37 116 124 138 119 112 109 114 123 135 136 136 136 142 148 151 158 170 186 199 214 227 237 243 250 257 260 262 268 270 268 265
222 247 218 222 132 125 142 133 157 138 132 138 130 108 88 65 84 121 109 125 133 115 107 97 102 108 110 120 135 138 143 146 161 176 206 227 236 245 251 257 261 262 264 266 269 272 274 272 270
223 270 213 183 153 137 138 142 141 135 127 104 115 106 79 93 102 120 129 111 114 110 102 101 97 100 106 113 123 137 150 147 168 211 239 254 261 264 267 268 268 271 273 275 275 275 275 275 274
266 225 207 146 151 155 143 162 181 147 129 70 123 106 107 112 111 117 115 109 106 102 97 98 110 92 90 107 109 110 117 127 144 285 300 287 282 280 279 278 277 279 280 279 280 281 279 278 276
263 258 188 163 170 147 142 143 158 172 83 123 19 140 143 131 130 124 120 115 107 100 93 91 98 100 92 77 66 50 40 20 4 348 329 319 313 314 305 299 295 285 284 282 280 280 280 281 279
256 223 187 180 181 144 159 153 115 123 129 84 76 81 118 138 142 131 126 118 108 99 93 87 84 80 77 69 52 33 25 16 13 1 333 340 308 294 291 285 280 281 286 286 282 279 277 276 276
247 223 164 163 123 159 167 178 146 162 144 110 110 115 133 145 154 150 142 123 111 102 87 79 75 70 64 57 54 40 31 25 21 9 357 338 317 309 314 302 308 309 303 295 289 287 283 278 271
183 169 159 169 175 155 159 154 165 188 186 153 152 144 150 155 168 144 125 108 104 102 93 83 81 74 67 61 51 36 26 21 10 6 358 338 332 318 314 311 308 305 301 297 295 288 278 276 276
133 107 171 152 171 163 163 144 183 209 54 131 137 143 150 158 155 134 130 135 128 113 110 101 94 85 79 65 52 44 43 40 33 26 19 3 350 338 330 322 314 305 303 302 297 295 292 285 278
136 129 129 153 167 168 145 186 151 164 123 130 136 149 155 150 134 133 134 126 128 126 124 114 107 101 90 73 60 57 54 39 35 26 18 17 5 357 346 338 327 317 309 305 302 298 294 289 284
127 145 143 156 163 166 192 151 196 136 143 142 152 160 159 156 156 148 150 139 136 136 142 141 139 136 123 107 90 74 61 41 19 7 359 1 356 347 345 337 334 328 322 316 308 302 296 290 286
148 149 156 180 172 176 202 178 214 152 166 161 170 169 168 172 168 167 158 159 159 162 166 175 173 173 165 161 211 309 309 319 318 321 324 331 332 329 329 327 325 323 321 314 309 304 298 291 285
189 184 184 177 187 168 211 186 194 164 178 181 181 180 186 185 185 186 189 190 188 198 203 214 225 228 238 252 272 286 294 294 296 297 300 298 307 311 312 313 313 312 311 311 307 302 297 293 289
197 201 210 161 192 165 210 241 165 179 191 192 192 193 197 193 200 201 206 212 213 223 230 239 248 260 267 275 277 283 285 290 292 292 292 294 295 299 299 302 304 302 300 301 300 298 296 294 288
191 234 194 209 191 208 205 246 169 187 195 201 200 204 205 211 208 208 213 220 223 229 238 249 259 272 280 283 285 289 288 290 289 290 293 294 293 295 294 295 296 295 294 292 293 292 289 287 284
244 225 204 196 159 210 227 221 188 196 205 209 206 210 214 216 217 216 212 221 228 233 241 251 265 278 287 288 290 291 288 292 289 290 294 294 294 296 294 293 295 292 289 290 288 285 284 281 278
209 210 202 145 179 220 223 231 215 193 212 215 215 215 217 217 216 214 214 221 231 241 253 264 276 282 285 287 289 290 291 289 288 290 292 292 295 295 295 296 294 292 290 287 285 283 282 278 274
206 220 212 244 169 221 251 229 203 219 217 221 229 230 226 223 218 216 216 224 238 252 269 281 287 295 309 316 304 301 295 288 291 295 297 297 296 295 295 295 294 291 287 284 283 281 278 279 276
203 215 232 213 222 245 210 260 193 203 215 220 226 232 235 226 229 224 219 232 244 267 265 297 49 43 23 12 340 332 312 306 304 300 298 298 296 295 295 294 294 292 289 288 285 284 287 287 284
48 167 220 235 246 291 213 252 269 186 217 221 225 235 235 229 222 225 221 234 125 182 107 91 80 60 33 8 349 329 316 308 305 302 301 300 298 296 298 296 295 293 293 290 292 283 280 280 281
136 171 196 230 246 239 240 237 254 200 223 220 221 239 242 232 219 214 187 149 155 114 91 77 55 28 360 347 336 327 317 313 310 307 305 304 306 304 300 300 303 297 293 290 290 286 278 273 273
203 201 231 221 203 245 103 239 270 103 207 277 196 196 183 186 188 182 180 167 133 98 75 50 16 352 344 337 331 326 319 315 310 312 311 314 309 306 305 306 303 299 297 293 290 287 281 272 272
208 237 210 269 208 131 173 242 122 143 190 210 203 176 170 184 183 159 164 143 113 86 48 12 355 343 338 333 327 322 318 316 314 315 313 308 306 305 305 303 301 298 295 292 290 284 279 273 267
171 228 304 248 259 269 252 172 222 193 196 194 193 191 191 188 137 154 130 123 105 67 26 4 349 338 334 329 325 323 322 321 317 314 312 309 307 305 304 302 300 297 294 290 285 281 276 272 266
240 137 189 215 254 264 178 266 280 170 185 189 200 200 194 149 161 143 130 117 91 43 12 354 345 338 331 329 327 324 322 320 317 314 312 311 309 307 307 305 301 299 295 293 287 279 275 271 267
175 211 222 287 281 257 296 297 112 198 225 208 215 202 181 178 154 143 129 110 62 20 3 350 343 336 332 330 327 325 324 322 319 317 318 317 314 314 310 308 307 303 299 295 290 281 274 263 261
247 232 202 220 203 217 275 272 150 214 256 244 267 160 137 152 140 139 118 77 33 10 356 349 341 335 333 331 328 327 324 325 325 325 322 322 320 320 316 313 310 306 302 297 289 282 274 263 258